STARLINK-11624, 63105

Orbit data source: Space-Track

STARLINK-11624, 63105 is a payload satellite owned by SpaceX/Seattle (US) in LEO that was launched on Thu, 27 Feb 2025 UTC via an FALCON 9 launch vehicle from the Air Force Eastern Test Range (AFETR). Payload-class satellites include a variety of spacecraft equipped with specific instruments for various scientific and technological missions. These include communications satellites like Starlink; space stations such as the ISS; scientific satellites like the Hubble; Earth observation satellites from companies like Planet Labs, Umbra, and HawkEye 360; GPS; miniature CubeSats for education and research; and military/defense satellites.

Loading next visibility...
Identifier
63105, 2025-039B
Orbit
LEO
Last TLE update
18 hours ago
Origin
Manufacturer
SpaceX/Seattle
Mission
Operational Commercial Communications
Bus & Motor
STARLINK V2M, Unknown motor
Mass
730 kg wet, ~700 kg dry
Launch date (UTC)
2025-02-27 (2 months ago)
Launch vehicle
FALCON 9
Launch site
Air Force Eastern Test Range (AFETR)
Object type
Payload
Rocket body
Debris
Shape & HBR
Box + 2 Pan, 29 m
Radar Cross Section
36.964 m², Large (>1 m²)

Expand to show TLE details & history

TLE from 18 hours ago
0 STARLINK-11624
1 63105U 25039B   25128.48515218  .00000526  00000-0  58878-5 0  9990
2 63105  43.0005 278.4057 0001604 256.7173 103.3518 15.77852889 11591
Epoch: 2025-05-08T11:38Z
Definitive object data (Epoch: 2025-05-08T11:38:37.148Z)
Latitude
-0.00004°
Longitude
-122.8041°
Altitude
336.545 km
Speed
7.708 km/s
True Right ascension
18h 33m 37s
True Declination
0° 00' 00"
Sunlit
Object was in full shadow at TLE epoch
Visualization TLE readout
Latitude
-15.42403°
Longitude
-144.51749°
Altitude
339.267 km
Speed
7.706 km/s
Apparent Right ascension
20h 21m 36s
Apparent Declination
-50° 25' 10"
Sunlit
Object is in full shadow
Visualization observer readout
Local Sidereal Time
13:55:23
Azimuth
130.7° SE
Elevation
-33.391°
Doppler factor
1
Orbital elements
Apogee altitude
339.59 km
Perigee altitude
337.435 km
Semi-major axis
6,716.65 km
Eccentricity
0.0001604
Inclination
43.0005°
RAAN
278.4057°
Arg. of periapsis
256.7173°
True anomaly
103.36968°
Mean anomaly
103.3518°
Eccentric anomaly
103.36074°
Mean motion
3.94289 °/min
BSTAR
0.0000058878
Orbital period
91.3 mins
Loading maneuver chart data...
Loading SW <> Apogee altitude chart data...
Loading historical data...
Loading historical data...
Loading historical data...
Loading historical data...
Loading historical data...
Loading historical data...
Loading historical data...

STARLINK-11624 Visibility forecast

Observer location: undefined°, undefined°

Span
Click to sort rows by Start time (UTC) header in descending order
Start Az.
Max El. time (UTC)
Max El. Az.
Max El.
End time (UTC)
End Az.
4 mins2025-05-09 13:42:39.434Z234.221° WSW2025-05-09 13:44:39.434Z162.12° S40.531°2025-05-09 13:46:39.434Z80.339° E
4 mins2025-05-09 16:54:39.434Z298.852° NW2025-05-09 16:56:39.434Z43.617° NE37.291°2025-05-09 16:58:39.434Z88.765° E
|